Location: Atherton
(17.2661°S, 145.4859°E)
Time: 18:44:22
(UTC+10:00)

ACS3 Solar Sail - Pass Details

Date: 25 May 2025
Orbit: 920 x 1019 km, 97.5° (Epoch: 20 June)

Event Time Altitude Azimuth Distance (km) Brightness Sun altitude
Rises 06:08:35 0° 351° (N) 3,545 4.9 -7.5°
Reaches altitude 10° 06:11:13 10° 341° (NNW) 2,614 4.1 -6.9°
Maximum altitude 06:16:24 33° 278° (W) 1,512 2.4 -5.8°
Drops below altitude 10° 06:21:43 10° 215° (SW) 2,678 3.6 -4.6°
Sets 06:24:28 0° 206° (SSW) 3,644 4.4 -4.0°
